KLEX Airport Diagram

We have created a template for each of the higher traffic airports in the vZID airspace. They include KCMH, KCRW, KCVG, KDAY, KIND, KLEX and KSDF. You wil find usefull information including the airport diagram, weather, and specific airport procedures.

KLEX Weather

[Source: ADDS]
METAR
KLEX 251254Z 00000KT 10SM CLR 19/17 A3008 RMK AO2 SLP175 T01890167 =
TAF
KLEX 251131Z 2512/2612 VRB03KT P6SM SCT250 =
JSN Epic template designed by JoomlaShine.com